Fort Benning, AL

11:49 AM CDT on April 29, 2017 (GMT -0500)
Lawson Army Air Field

Weather History for KLSF - September, 2013

Change the Weather History Date:

Tuesday, September 17, 2013

  Actual Average Record
Temperature  
Mean Temperature 74 °F -  
Max Temperature 82 °F 83 °F 97 °F (2010)
Min Temperature 66 °F 62 °F 48 °F (2001)
Cooling Degree Days 9    
Growing Degree Days 24 (Base 50)    
Moisture  
Dew Point 70 °F    
Average Humidity 82    
Maximum Humidity 100    
Minimum Humidity 70    
Precipitation  
Precipitation 0.00 in - - ()
Sea Level Pressure  
Sea Level Pressure 30.10 in    
Wind  
Wind Speed 5 mph (NE)    
Max Wind Speed 13 mph    
Max Gust Speed 17 mph    
Visibility 10 miles    
Events      
Averages and records for this station are not official NWS values.
T = Trace of Precipitation, MM = Missing Value Source: NWS Daily Summary

Daily Weather History Graph

Daily Weather History Graph

Search for Another Location

Airport or City:

Trip Planner

Search our weather history database for the weather conditions in past years. The results will help you decide how hot, cold, wet, or windy it might be!

Date:

Astronomy

Sep. 17, 2013 Rise Set
Actual Time 7:25 AM EDT 7:42 PM EDT
Civil Twilight 7:00 AM EDT 8:07 PM EDT
Nautical Twilight 6:31 AM EDT 8:36 PM EDT
Astronomical Twilight 6:02 AM EDT 9:05 PM EDT
Moon 6:26 PM EDT (9/17) 5:23 AM EDT (9/17)
Length of Visible Light 13h 06m
Length of Day
12h 17m
Waxing Gibbous, 96% of the Moon is Illuminated
Sep 17
Waxing Gibbous
Sep 19
Full
Sep 26
Last Quarter
Oct 4
New
Oct 11
First Quarter

Hourly Weather History & Observations

Time (EDT) Temp. Heat Index Dew Point Humidity Pressure Visibility Wind Dir Wind Speed Gust Speed Precip Events Conditions
12:03 AM 69.8 °F - 69.8 °F 100% 30.08 in 6.0 mi West 3.5 mph - N/A   Clear
12:13 AM 69.8 °F - 69.8 °F 100% 30.08 in 10.0 mi WNW 5.8 mph - N/A   Clear
12:58 AM 70.5 °F - 70.2 °F 99% 30.07 in 10.0 mi WNW 4.6 mph - N/A   Clear
1:58 AM 69.3 °F - 68.9 °F 99% 30.09 in 10.0 mi SW 2.3 mph - N/A   Partly Cloudy
2:48 AM 68.0 °F - 68.0 °F 100% 30.08 in 9.0 mi NW 1.2 mph - N/A   Scattered Clouds
2:58 AM 68.0 °F - 68.0 °F 100% 30.07 in 9.0 mi Calm Calm - N/A   Partly Cloudy
3:08 AM 68.0 °F - 68.0 °F 100% 30.07 in 9.0 mi NW 2.3 mph - N/A   Clear
3:58 AM 66.7 °F - 66.7 °F 100% 30.06 in 9.0 mi West 4.6 mph - N/A   Clear
4:58 AM 67.8 °F - 67.6 °F 99% 30.06 in 10.0 mi WNW 3.5 mph - N/A   Clear
5:58 AM 66.2 °F - 65.8 °F 99% 30.07 in 10.0 mi WNW 4.6 mph - N/A   Clear
6:58 AM 66.4 °F - 66.2 °F 99% 30.09 in 10.0 mi Calm Calm - N/A   Clear
7:58 AM 66.2 °F - 65.8 °F 99% 30.11 in 10.0 mi NNW 2.3 mph - N/A   Clear
8:58 AM 71.2 °F - 68.0 °F 89% 30.13 in 10.0 mi North 1.2 mph - N/A   Clear
9:58 AM 75.0 °F - 68.7 °F 81% 30.14 in 10.0 mi NE 4.6 mph - N/A   Clear
10:58 AM 79.9 °F - 70.5 °F 73% 30.14 in 10.0 mi East 9.2 mph - N/A   Scattered Clouds
11:58 AM 82.0 °F 87.0 °F 72.1 °F 72% 30.14 in 10.0 mi ENE 12.7 mph - N/A   Scattered Clouds
12:08 PM 82.4 °F 88.2 °F 73.4 °F 74% 30.14 in 10.0 mi NE 8.1 mph - N/A   Mostly Cloudy
12:58 PM 79.7 °F - 72.3 °F 78% 30.16 in 10.0 mi East 5.8 mph - N/A   Overcast
1:03 PM 78.8 °F - 71.6 °F 78% 30.15 in 10.0 mi East 8.1 mph - N/A   Overcast
1:23 PM 78.8 °F - 71.6 °F 78% 30.15 in 10.0 mi NNE 9.2 mph - N/A   Overcast
1:58 PM 79.9 °F - 72.1 °F 77% 30.14 in 10.0 mi NE 10.4 mph - N/A   Mostly Cloudy
2:18 PM 80.6 °F 85.4 °F 73.4 °F 79% 30.13 in 10.0 mi East 12.7 mph - N/A   Overcast
2:23 PM 80.6 °F 84.6 °F 71.6 °F 74% 30.13 in 10.0 mi Variable 5.8 mph 17.3 mph N/A   Overcast
2:58 PM 79.9 °F - 72.0 °F 77% 30.12 in 10.0 mi ENE 8.1 mph - N/A   Overcast
3:23 PM 82.4 °F 88.2 °F 73.4 °F 74% 30.10 in 10.0 mi Variable 6.9 mph - N/A   Mostly Cloudy
3:58 PM 80.6 °F 84.6 °F 71.8 °F 74% 30.09 in 10.0 mi NNE 10.4 mph 16.1 mph N/A   Overcast
4:18 PM 82.4 °F 87.2 °F 71.6 °F 70% 30.09 in 10.0 mi ENE 9.2 mph - N/A   Mostly Cloudy
4:23 PM 82.4 °F 87.2 °F 71.6 °F 70% 30.09 in 10.0 mi ENE 10.4 mph 17.3 mph N/A   Mostly Cloudy
4:38 PM 82.4 °F 87.2 °F 71.6 °F 70% 30.09 in 10.0 mi NE 10.4 mph - N/A   Scattered Clouds
4:48 PM 82.4 °F 87.2 °F 71.6 °F 70% 30.09 in 10.0 mi ENE 9.2 mph - N/A   Mostly Cloudy
4:53 PM 80.6 °F 84.6 °F 71.6 °F 74% 30.08 in 10.0 mi Variable 6.9 mph - N/A   Scattered Clouds
4:58 PM 81.1 °F 85.2 °F 71.4 °F 72% 30.09 in 10.0 mi East 8.1 mph - N/A   Partly Cloudy
5:08 PM 80.6 °F 84.6 °F 71.6 °F 74% 30.08 in 10.0 mi NE 9.2 mph - N/A   Mostly Cloudy
5:18 PM 80.6 °F 84.6 °F 71.6 °F 74% 30.08 in 10.0 mi ENE 6.9 mph - N/A   Scattered Clouds
5:53 PM 80.6 °F 84.6 °F 71.6 °F 74% 30.08 in 10.0 mi East 6.9 mph - N/A   Mostly Cloudy
5:58 PM 81.3 °F 85.6 °F 71.4 °F 72% 30.09 in 10.0 mi ENE 5.8 mph - N/A   Mostly Cloudy
6:58 PM 78.8 °F - 71.2 °F 78% 30.09 in 10.0 mi ENE 4.6 mph - N/A   Scattered Clouds
7:08 PM 78.8 °F - 71.6 °F 78% 30.08 in 10.0 mi NE 3.5 mph - N/A   Mostly Cloudy
7:13 PM 78.8 °F - 71.6 °F 78% 30.08 in 10.0 mi ENE 3.5 mph - N/A   Scattered Clouds
7:23 PM 78.8 °F - 71.6 °F 78% 30.08 in 10.0 mi East 4.6 mph - N/A   Mostly Cloudy
7:33 PM 78.8 °F - 71.6 °F 78% 30.08 in 10.0 mi East 4.6 mph - N/A   Mostly Cloudy
7:43 PM 78.8 °F - 71.6 °F 78% 30.08 in 10.0 mi ENE 3.5 mph - N/A   Scattered Clouds
7:58 PM 77.5 °F - 70.5 °F 79% 30.10 in 10.0 mi ENE 3.5 mph - N/A   Scattered Clouds
8:58 PM 76.3 °F - 69.1 °F 78% 30.11 in 10.0 mi ENE 5.8 mph - N/A   Clear
9:58 PM 74.5 °F - 68.4 °F 81% 30.14 in 10.0 mi ENE 3.5 mph - N/A   Clear
10:58 PM 72.5 °F - 67.6 °F 85% 30.14 in 10.0 mi NE 3.5 mph - N/A   Clear
11:58 PM 71.4 °F - 67.1 °F 86% 30.14 in 10.0 mi NE 3.5 mph - N/A   Clear